STARLINK-4130 (53263 NORAD) Tracking and Keplerian Element Data

This shows tracking and keplerian element data for the satellite.

Feedback or suggestion? Click here.




ElementValue
Catalog53263
NameSTARLINK-4130
Epoch Orbit1074
Epoch Day270.25001157
Epoch Year2022
RAAN88.1528
Inclination53.2173
Eccentricity0.0001365
Argument of Perigee68.1888
Mean Anonmoly212.298
Mean Motion15.21052583
Decay Rate-0.01071484
L11 53263U 22086X 22270.25001157 -.01071484 00000+0 -52077-1 0 9999
L22 53263 53.2173 88.1528 0001365 68.1888 212.2980 15.21052583 10746

Live tracking and technical data element details for STARLINK-4130 (NORAD 53263). STARLINK-4130 can be tracked NOW for your location showing map with azimuth and elevation plus other details from your city location.

Track the satellite on the map from your city or location and see movement details for azimuth, elevation, latitude, longitude, range, height, and movement on the map or in text.







IsCatalogInMostPopularTable: catalog: 53263, numindb: 3
Update: records affected: 1



GetName: 53263 STARLINK-4130

Hit Count: updated at: Thu, 29 Sep 2022 10:47:16 GMT